This is the latest recevied weather packets stored in our database for station/object KD9IXX-13. If no packets are shown the sender has not sent any weather packets the latest 10 day(s).
| Time | Temp. | Humidity | Pressure | Rain* | Wind** | Luminosity | Snow |
|---|---|---|---|---|---|---|---|
| 1787594101 | 24.44° C | 52% | 1020.3 hPa | 0 mm | - | 639 W/m² | - |
| 1787593202 | 25° C | 56% | 1020.4 hPa | 0 mm | - | 240 W/m² | - |
| 1787592302 | 23.89° C | 53% | 1020.3 hPa | 0 mm | - | 699 W/m² | - |
| 1787591401 | 24.44° C | 53% | 1020.4 hPa | 0 mm | - | 678 W/m² | - |
| 1787591102 | 24.44° C | 54% | 1020.4 hPa | 0 mm | - | 671 W/m² | - |
| 1787590802 | 25° C | 55% | 1020.5 hPa | 0 mm | - | 647 W/m² | - |
| 1787590202 | 24.44° C | 56% | 1020.6 hPa | 0 mm | - | 628 W/m² | - |
| 1787588701 | 23.89° C | 58% | 1020.9 hPa | 0 mm | - | 637 W/m² | - |
| 1787588402 | 23.89° C | 58% | 1020.8 hPa | 0 mm | - | 667 W/m² | - |
| 1787587802 | 23.89° C | 60% | 1020.6 hPa | 0 mm | - | 655 W/m² | - |
| 1787586901 | 23.89° C | 59% | 1020.6 hPa | 0 mm | - | 659 W/m² | - |
| 1787586001 | 23.33° C | 62% | 1020.4 hPa | 0 mm | - | 654 W/m² | - |
| 1787585402 | 23.33° C | 65% | 1019.9 hPa | 0 mm | - | 653 W/m² | - |
| 1787585102 | 23.89° C | 61% | 1020 hPa | 0 mm | - | 636 W/m² | - |
| 1787583303 | 23.33° C | 71% | 1019.9 hPa | 0 mm | - | 596 W/m² | - |
| 1787582702 | 21.67° C | 70% | 1019.8 hPa | 0 mm | - | 584 W/m² | - |
| 1787582403 | 21.67° C | 71% | 1019.6 hPa | 0 mm | - | 563 W/m² | - |
| 1787581802 | 21.67° C | 72% | 1019.3 hPa | 0 mm | - | 576 W/m² | - |
| 1787581501 | 22.22° C | 71% | 1019.2 hPa | 0 mm | - | 551 W/m² | - |
| 1787580902 | 21.11° C | 75% | 1019.2 hPa | 0 mm | - | 500 W/m² | - |
| 1787580302 | 20.56° C | 76% | 1019.3 hPa | 0 mm | - | 459 W/m² | - |
| 1787580002 | 20° C | 77% | 1019.5 hPa | 0 mm | - | 432 W/m² | - |
| 1787579702 | 20° C | 80% | 1019.4 hPa | 0 mm | - | 401 W/m² | - |
| 1787579402 | 19.44° C | 81% | 1019.4 hPa | 0 mm | - | 371 W/m² | - |
| 1787579102 | 20° C | 81% | 1019.4 hPa | 0 mm | - | 352 W/m² | - |
* Rain latest hour (hover to see other rain measurements)
** Current wind speed in m/s (hover to see current wind gust speed)